Location: Charleville
(26.4021°S, 146.2454°E)
Time: 10:19:37
(UTC+10:00)

N. Korean satellite - Pass Details

Date: 08 December 2021
Orbit: 447 x 491 km, 97.3° (Epoch: 23 January)

Event Time Altitude Azimuth Distance (km) Brightness Sun altitude
Rises 03:50:51 0° 57° (ENE) 2,482 10.4 -16.9°
Reaches altitude 10° 03:54:36 10° 100° (E) 1,635 10.2 -16.2°
Maximum altitude 03:55:11 10° 109° (ESE) 1,619 10.4 -16.1°
Drops below altitude 10° 03:55:46 10° 119° (ESE) 1,644 10.6 -16.0°
Sets 03:59:35 0° 161° (SSE) 2,551 11.2 -15.3°
